#timestamp,LO_Frequency,Hit 
1499778015.6,286046997.4,N
1499778035.5,286046998.0,N
1499778055.3,286046995.0,N
1499778075.1,286046995.3,N
1499778095.9,286046997.4,N
1499778115.7,286046995.1,N
1499778135.5,286046995.4,N
1499778155.4,286046995.1,N
1499778175.2,286046995.1,N
1499778195.1,286046994.9,N
1499778196.0,286046994.9,N
1499778215.8,286046995.2,N
1499778235.6,286046997.2,N
1499778255.5,286046996.9,N
1499778275.3,286046996.9,N
1499778295.2,286046996.9,N
1499778315.9,286046999.2,N
1499778335.7,286046997.8,N
1499778355.6,286046997.4,N
1499778375.4,286046997.4,N
1499778395.2,286046995.0,N
1499778415.1,286046996.2,N
1499778416.0,286046996.2,N
1499778435.8,286046993.7,N
1499778455.7,286046995.6,N
1499778475.5,286046997.1,N
1499778495.3,286046996.4,N
1499778515.2,286046995.3,N
1499778535.0,286046997.2,N
1499778535.9,286046997.2,N
1499778555.8,286046997.3,N
1499778575.6,286046997.1,N
1499778595.4,286046997.2,N
1499778615.3,286046997.4,N
1499778635.1,286046996.2,N
1499778655.8,286046996.2,N
1499778675.7,286046996.1,N
1499778695.5,286046995.0,N
1499778715.4,286046993.8,N
1499778735.2,286046995.8,N
1499778755.0,286046995.7,N
1499778755.9,286046995.7,N
1499778775.8,286046995.8,N
1499778795.6,286046993.5,N
1499778815.4,286046994.6,N
1499778835.3,286046994.4,N
1499778855.1,286046994.3,N
1499778875.9,286046994.3,N
1499778895.7,286046994.2,N
1499778915.5,286046993.9,N
1499778935.4,286046994.6,N
1499778955.2,286046991.8,N
1499778975.1,286046993.2,N
1499778976.0,286046993.2,N
1499778995.8,286046990.5,N
1499779015.6,286046990.2,N
1499779035.5,286046992.3,N
1499779055.3,286046994.5,N
1499779075.2,286046992.9,N
1499779095.9,286046992.5,N
1499779115.7,286046994.0,N
1499779135.6,286046993.9,N
1499779155.4,286046993.4,N
1499779175.2,286046995.9,N
1499779195.1,286046994.2,N
1499779196.0,286046994.2,N
1499779215.8,286046993.5,N
1499779235.7,286046996.3,N
1499779255.5,286046995.4,N
1499779275.3,286046995.4,N
1499779295.2,286046996.2,N
1499779315.0,286046994.3,N
1499779315.9,286046994.3,N
1499779335.7,286046994.0,N
1499779355.6,286046992.6,N
1499779375.4,286046992.1,N
1499779395.3,286046992.3,N
1499779415.1,286046992.1,N
1499779416.0,286046992.1,N
1499779435.8,286046992.7,N
1499779455.7,286046993.1,N
1499779475.5,286046993.1,N
1499779495.3,286046993.0,N
1499779515.2,286046992.3,N
1499779535.0,286046994.7,N
1499779535.9,286046994.7,N
1499779555.8,286046995.6,N
1499779575.6,286046993.3,N
1499779595.4,286046996.2,N
1499779615.3,286046995.6,N
1499779635.1,286046996.1,N
1499779655.9,286046993.8,N
1499779675.7,286046994.6,N
1499779695.5,286046996.1,N
1499779715.4,286046995.1,N
1499779735.2,286046994.9,N
1499779755.0,286046993.5,N
1499779755.9,286046993.5,N
1499779775.8,286046994.2,N
1499779795.6,286046990.2,N
1499779815.5,286046993.9,N
1499779835.3,286046993.9,N
1499779855.1,286046996.4,N
1499779875.9,286046996.4,N
1499779895.7,286046995.6,N
1499779915.5,286046994.9,N
1499779935.4,286046996.7,N
1499779955.2,286046995.5,N
1499779975.1,286046995.0,N
1499779976.0,286046995.0,N
1499779995.8,286046993.5,N
1499780015.6,286046994.3,N
1499780035.5,286046993.6,N
1499780055.3,286046995.5,N
1499780075.1,286046995.0,N
1499780095.9,286046995.7,N
1499780115.7,286046997.7,N
1499780135.6,286046995.4,N
1499780155.4,286046997.5,N
1499780175.2,286046994.9,N
1499780195.1,286046997.6,N
1499780196.0,286046997.6,N
1499780215.8,286046995.3,N
1499780235.6,286046996.3,N
1499780255.5,286046995.6,N
1499780275.3,286046993.3,N
1499780295.2,286046996.4,N
1499780315.9,286046995.6,N
1499780335.7,286046996.2,N
1499780355.6,286046996.1,N
1499780375.4,286046996.1,N
1499780395.3,286046995.8,N
1499780415.1,286046996.0,N
1499780416.0,286046996.0,N
1499780435.8,286046996.4,N
1499780455.7,286046996.0,N
1499780475.5,286046994.9,N
1499780495.3,286046996.7,N
1499780515.2,286046998.8,N
1499780535.0,286046997.4,N
1499780535.9,286046997.4,N
1499780555.8,286046996.5,N
1499780575.6,286046996.6,N
1499780595.4,286046997.2,N
1499780615.3,286046997.1,N
1499780635.1,286046995.1,N
1499780655.9,286046995.7,N
1499780675.7,286046997.4,N
1499780695.5,286046995.1,N
1499780715.4,286046998.0,N
1499780735.2,286046997.6,N
1499780755.1,286046997.3,N
1499780756.0,286046997.3,N
1499780775.8,286046996.8,N
1499780795.6,286046996.8,N
1499780815.5,286046996.6,N
1499780835.3,286046995.5,N
1499780855.2,286046995.8,N
1499780875.9,286046996.4,N
1499780895.7,286046995.2,N
1499780915.6,286046995.9,N
1499780935.4,286046996.8,N
1499780955.2,286046995.3,N
1499780975.1,286046995.3,N
1499780976.0,286046995.3,N
1499780995.8,286046998.0,N
1499781015.7,286046995.2,N
1499781035.5,286046995.3,N
1499781055.3,286046995.3,N
1499781075.2,286046997.4,N
1499781095.0,286046995.1,N
1499781095.9,286046995.1,N
1499781115.7,286046996.8,N
1499781135.6,286046996.9,N
1499781155.4,286046996.9,N
1499781175.3,286046997.2,N
1499781195.1,286046996.8,N
1499781196.0,286046996.8,N
1499781215.8,286046996.5,N
1499781235.7,286046997.6,N
1499781255.5,286046995.5,N
1499781275.3,286046995.8,N
1499781295.2,286046996.1,N
1499781315.0,286046996.8,N
1499781315.9,286046996.8,N
1499781335.8,286046997.6,N
1499781355.6,286046995.5,N
1499781375.4,286046995.3,N
1499781395.3,286046997.9,N
1499781415.1,286046997.1,N
1499781435.9,286046994.9,N
1499781455.7,286046995.4,N
1499781475.5,286046995.2,N
1499781495.4,286046995.9,N
1499781515.2,286046995.5,N
1499781535.0,286046995.8,N
1499781536.0,286046995.8,N
1499781555.8,286046995.1,N
1499781575.6,286046996.4,N
1499781595.5,286046995.8,N
